Regional Weather Roundup
Issued by NWS

Home | Current Version | Previous Version | Text Only | Print | Product List | Glossary On
Versions: 1 2 3 4 5 6 7 8 9 10 11 12 13 14 15 16 17 18 19 20 21 22 23 24 25 26 27 28 29 30 31 32 33 34 35 36 37 38 39 40 41 42 43 44 45 46 47 48 49 50
000
ASUS45 KTFX 282010
RWRMT
MONTANA REGIONAL WEATHER ROUNDUP
NATIONAL WEATHER SERVICE GREAT FALLS MT
200 PM MDT WED JUN 28 2017

NOTE: "FAIR" INDICATES FEW OR NO CLOUDS BELOW 12000 FEET WITH NO
SIGNIFICANT WEATHER AND/OR OBSTRUCTIONS TO VISIBILITY.

MTZ001>007-043-282100-
WEST OF THE DIVIDE

CITY           SKY/WX    TMP DP  RH WIND       PRES   REMARKS
KALISPELL      PTSUNNY   76  34  21 SW15G23   29.76S
MISSOULA       MOSUNNY   77  34  21 VRB3      29.80F
BUTTE          CLOUDY    67  39  35 N14G22    29.89F
MULLAN PASS    PTSUNNY   62  37  39 MISG      29.97R
ANACONDA         N/A     70  32  24 W9        29.86F
DEER LODGE       N/A     72  34  25 NW18G26   29.86R
EUREKA           N/A     77  28  16 MISG      29.73S
HAMILTON         N/A     73  37  27 NE5       29.83S
$$

MTZ008-052>055-282100-
SOUTHWEST MONTANA

CITY           SKY/WX    TMP DP  RH WIND       PRES   REMARKS
BOZEMAN        LGT RAIN  61  42  49 N23G41    29.84R
DILLON         CLOUDY    69  46  43 SW7       29.85F
W YELLOWSTONE  SUNNY     63  45  51 SW22G35   29.95F
ENNIS          MOSUNNY   73  37  27 W9G17     29.90F
THREE FORKS      N/A     63  49  60 N5        29.86R
$$

MTZ009-010-012-014-046-048-049-054-282100-
EAST SLOPES AND CENTRAL MONTANA

CITY           SKY/WX    TMP DP  RH WIND       PRES   REMARKS
CUT BANK       SUNNY     76  28  17 NW20G29   29.74R
GREAT FALLS    MOSUNNY   74  28  18 W18G28    29.75S
MALMSTROM AFB  MOSUNNY   77  30  18 W15G25    29.75S
HELENA         CLOUDY    78  31  17 W20G28    29.80S
CHOTEAU          N/A     75  30  19 W10G16    29.78F
$$

MTZ011-013-016-021-045-047-050-051-282100-
NORTH CENTRAL MONTANA

CITY           SKY/WX    TMP DP  RH WIND       PRES   REMARKS
HAVRE          MOSUNNY   81  31  16 W17G24    29.67S
LEWISTOWN      CLOUDY    74  32  21 W13G24    29.76S
N BAR RANCH      N/A     75  34  22 NW14      29.79F
CHINOOK          N/A     81  36  19 W9G23     29.65F
FORT BENTON      N/A     79  28  15 CALM      29.70F
$$

MTZ017>020-022>027-061-062-282100-
NORTHEAST MONTANA

CITY           SKY/WX    TMP DP  RH WIND       PRES   REMARKS
GLASGOW        MOSUNNY   72  43  35 E22G29    29.69S
JORDAN           N/A     83  41  22 W8G20     29.66F
SIDNEY         SUNNY     82  32  16 S5        29.71F
WOLF POINT     TSTM      64  48  56 E12       29.71F
MALTA          SUNNY     79  45  29 VRB5G12   29.66S
PLENTYWOOD       N/A     64  48  55 SW8       29.77R
POPLAR           N/A     68  43  40 CALM      29.75R
$$

MTZ028>42-056>058-282100-
SOUTHCENTRAL AND SOUTHEAST MONTANA

CITY           SKY/WX    TMP DP  RH WIND       PRES   REMARKS
BAKER          SUNNY     79  30  16 CALM      29.75F
BILLINGS       PTSUNNY   76  37  24 W14       29.75R THUNDER
LIVINGSTON     CLOUDY    73  43  33 W15       29.80F
MILES CITY     MOSUNNY   80  49  33 SW10      29.68F
BIG TIMBER     MOSUNNY   72  46  40 W9        29.83R
LAUREL           N/A     71  37  28 S3        29.79R
ROUNDUP          N/A     81  35  19 SW17      29.67S
$$

REGIONAL REPORTS...DAKOTAS

CITY           SKY/WX    TMP DP  RH WIND       PRES   REMARKS
WILLISTON      SUNNY     82  38  20 CALM      29.73S
MINOT          SUNNY     80  46  30 N15G21    29.68R
DICKINSON      SUNNY     81  31  16 N10       29.73S
BEACH            N/A     77  25  14 VRB5      29.78F
CROSBY           N/A     77  43  29 VRB6G18   29.73R
TIOGA            N/A     75  43  31 N9        29.75R
WATFORD CITY     N/A     77  41  27 CALM      29.72S
BISMARCK       SUNNY     80  46  30 NW14G22   29.69F
GRAND FORKS    CLOUDY    65  63  93 N8        29.56R
FARGO          CLOUDY    67  61  81 NW18G25   29.51R
BUFFALO SD       N/A     81  31  16 VRB5      29.70F
RAPID CITY     SUNNY     81  47  30 VRB3      29.76F
$$

REGIONAL REPORTS...WYOMING/IDAHO/WASHINGTON

CITY           SKY/WX    TMP DP  RH WIND       PRES   REMARKS
GILLETTE       CLOUDY    79  48  33 E10       29.77F
SHERIDAN       CLOUDY    81  46  29 NE8       29.76F
BUFFALO WY     SUNNY     75  44  33 CALM      29.80F
CODY           CLOUDY    67  49  52 S9        29.86F
YELLOWSTONE LA   N/A     57  40  52 MISG      30.05S
IDAHO FALLS    CLOUDY    70  47  43 S7        29.90F
SALMON         CLOUDY    68  48  49 NW5       29.82F
BOISE          SUNNY     80  33  18 W9G20     29.87F
SPOKANE        MOSUNNY   73  43  33 SW14      29.86F
$$

REGIONAL REPORTS...ALBERTA

CITY           SKY/WX    TMP DP  RH WIND       PRES   REMARKS
EDMONTON       LGT RAIN  59  54  82 N8        29.69R
CALGARY        PTSUNNY   63  45  51 N13       29.78R
LETHBRIDGE     MOSUNNY   77  32  19 N15G22    29.68S
MEDICINE HAT   PTSUNNY   77  43  29 SW9       29.65F
WATERTON GATE    N/A     72  32  23 W15G29      N/A
$$

REGIONAL REPORTS...SASKATCHEWAN

CITY           SKY/WX    TMP DP  RH WIND       PRES   REMARKS
SWIFT CURRENT  MOSUNNY   72  45  37 E12       29.70F
REGINA         PTSUNNY   68  48  49 W7        29.73S
SASKATOON      MOSUNNY   72  46  40 NW12G18   29.70R
CYPRESS HILLS    N/A     70  41  35 W9G18       N/A
VAL MARIE        N/A     77  41  27 S14G22      N/A
ROCKGLEN         N/A     66  46  48 S14         N/A
$$



USA.gov is the U.S. government's official web portal to all federal, state and local government web resources and services.